Flag for Germany Weather past 2 weeks in Alsfeld, Hesse, Germany

Now
57 °F

Passing clouds.


Feels Like: 57 °F
Forecast: 43 / 62 °F
Wind: 3 mph from East

Location: Fritzlar


UV Index: 3 (Moderate)

Visibility: 19 mi


Pressure: 29.77 "Hg

Humidity: 63%

Dew point: 44 °F

Location of AlsfeldLocation

Historic Weather in Alsfeld

°F

Alsfeld temperature yesterday

Maximum temperature yesterday: 60 °F (at 6:00 PM)
Minimum temperature yesterday: 39 °F (at 4:00 AM)
Average temperature yesterday: 49 °F

Past Weeks' High & Low Weather Summary

 TemperatureHumidityPressure
High67 °F (Apr 7, 2:00 PM)98% (Apr 6, 9:00 AM)30.47 "Hg (Apr 6, 9:00 AM)
Low29 °F (Apr 17, 7:00 AM)35% (Apr 17, 6:00 PM)29.72 "Hg (Apr 20, 6:00 PM)
Average50 °F71%30.08 "Hg
* Reported Apr 5 8:00 PM — Apr 20 8:00 PM, Alsfeld, Weather by CustomWeather, © 2014

Note: Actual official high and low records may vary slightly from our data, if they occured in-between our weather recording intervals... More about our weather records

Advertising

Historic Weather Conditions — Data for Previous 24 hours

 ConditionsComfort  
Time TempWeatherWind HumidityBarometerVisibility
8:00 PM
Apr 20
61 °FScattered clouds.6 mph52%29.75 "Hg22 mi
7:00 PM63 °FLight rain. Overcast.7 mph52%29.74 "Hg19 mi
6:00 PM66 °FThunderstorms. Partly sunny.6 mph45%29.72 "Hg16 mi
5:00 PM66 °FPartly sunny.6 mph45%29.73 "Hg22 mi
4:00 PM66 °FScattered clouds.7 mph45%29.74 "Hg19 mi
3:00 PM66 °FScattered clouds.7 mph47%29.75 "Hg16 mi
2:00 PM64 °FPassing clouds.7 mph50%29.76 "Hg16 mi
1:00 PM61 °FScattered clouds.7 mph55%29.78 "Hg16 mi
12:00 PM62 °FScattered clouds.7 mph56%29.79 "Hg11 mi
11:00 AM61 °FPassing clouds.6 mph58%29.80 "Hg11 mi
10:00 AM60 °FPassing clouds.6 mph62%29.81 "Hg9 mi
9:00 AM57 °FPassing clouds.3 mph69%29.82 "Hg9 mi
8:00 AM50 °FPassing clouds.2 mph87%29.83 "Hg7 mi
7:00 AM50 °FPassing clouds.2 mph84%29.83 "Hg7 mi
6:00 AM53 °FPassing clouds.3 mph79%29.83 "Hg9 mi
5:00 AM52 °FPassing clouds.1 mph80%29.84 "Hg9 mi
4:00 AM49 °FOvercast.3 mph91%29.86 "Hg7 mi
3:00 AM50 °FPassing clouds.2 mph87%29.87 "Hg7 mi
2:00 AM54 °FClear.2 mph82%29.88 "Hg8 mi
1:00 AM52 °FClear.1 mph82%29.91 "Hg9 mi
12:00 AM53 °FPassing clouds.2 mph81%29.93 "Hg9 mi
11:00 PM
Apr 19
55 °FPassing clouds.3 mph75%29.92 "Hg9 mi
10:00 PM56 °FClear.3 mph72%29.93 "Hg9 mi
9:00 PM57 °FPassing clouds.5 mph67%29.94 "Hg12 mi
Weather by CustomWeather, © 2014

See weather overview